Home > Weather > Nanaimo > Past weeks

Flag for Canada Past Weather in Nanaimo, British Columbia, Canada — Yesterday and Last 2 Weeks

Now
71 °F

Mild.


Feels Like: 70 °F
Forecast: 63 / 76 °F
Wind: 3 mph from Southeast

Location: Entrance Island

Current Time: Jul 25, 2016 at 9:38:52 PM

Latest Report: Jul 25, 2016 at 9:00 PM


Visibility: N/A

Pressure: 30.00 "Hg

Humidity: 85%

Dew Point: 67 °F

Location of NanaimoLocation

Past Weather in Nanaimo — Graph

°F

Nanaimo Temperature Yesterday

Maximum temperature yesterday: 76 °F (at 4:00 PM)
Minimum temperature yesterday: 62 °F (at 6:00 AM)
Average temperature yesterday: 68 °F

High & Low Weather Summary for the Past Weeks

 TemperatureHumidityPressure
High76 °F (Jul 24, 4:00 PM)98% (Jul 17, 9:00 AM)30.25 "Hg (Jul 17, 9:00 AM)
Low59 °F (Jul 13, 4:00 AM)58% (Jul 22, 8:00 PM)29.89 "Hg (Jul 17, 7:00 PM)
Average65 °F81%30.07 "Hg
* Reported Jul 10 8:00 PM — Jul 25 8:00 PM, Nanaimo, Weather by CustomWeather, © 2016

Note: Actual official high and low records may vary slightly from our data, if they occured in-between our weather recording intervals... More about our weather records

Advertising

Nanaimo Weather History for the Previous 24 Hours

Scroll right to see more
 ConditionsComfort  
Time TempWeatherWind HumidityBarometerVisibility
8:00 PM
Mon, Jul 25
72 °FMild.3 mph81%29.99 "HgN/A
7:00 PM74 °FMild.1 mph74%29.99 "HgN/A
6:00 PM75 °FMild.2 mph70%30.00 "HgN/A
5:00 PM75 °FMild.1 mph69%30.02 "HgN/A
4:00 PM75 °FMild.1 mph68%30.03 "HgN/A
3:00 PM71 °FMild.1 mph76%30.04 "HgN/A
2:00 PM71 °FMild.2 mph79%30.05 "HgN/A
1:00 PM69 °FMild.7 mph83%30.05 "HgN/A
12:00 PM68 °FMild.9 mph84%30.06 "HgN/A
11:00 AM67 °FMild.12 mph84%30.06 "HgN/A
10:00 AM67 °FMild.15 mph86%30.06 "HgN/A
9:00 AM67 °FMild.14 mph85%30.06 "HgN/A
8:00 AM68 °FMild.17 mph83%30.04 "HgN/A
7:00 AM68 °FMild.18 mph83%30.03 "HgN/A
6:00 AM69 °FMild.18 mph81%30.02 "HgN/A
5:00 AM69 °FMild.16 mph78%30.01 "HgN/A
4:00 AM70 °FMild.14 mph78%30.01 "HgN/A
3:00 AM70 °FMild.16 mph79%30.01 "HgN/A
2:00 AM71 °FMild.16 mph75%30.00 "HgN/A
1:00 AM72 °FMild.12 mph77%30.00 "HgN/A
12:00 AM70 °FMild.6 mph84%30.00 "HgN/A
11:00 PM
Sun, Jul 24
71 °FMild.5 mph79%30.00 "HgN/A
10:00 PM73 °FMild.7 mph66%30.00 "HgN/A
9:00 PM72 °FMild.10 mph72%30.00 "HgN/A
Weather by CustomWeather, © 2016

See weather overviewHow to use our weather pages